Home > Weather > Independence > Past weeks

Flag for U.S.A. Weather for the Past 2 Weeks in Independence, Missouri, U.S.A.

Now
39 °F

Clear.


Feels Like: 30 °F
Forecast: 36 / 49 °F
Wind: 16 mph from Southwest

Location: Lee's Summit Municipal Airport

Current Time: Feb 7, 2016 at 3:02:33 AM

Latest Report: Feb 7, 2016 at 1:53 AM


Visibility: 10 mi

Pressure: 30.06 "Hg

Humidity: 62%

Dew point: 27 °F

Location of IndependenceLocation

Historic Weather in Independence — Graph

°F

Independence Temperature Yesterday

Maximum temperature yesterday: 48 °F (at 1:53 PM)
Minimum temperature yesterday: 27 °F (at 6:53 AM)
Average temperature yesterday: 39 °F

High & Low Weather Summary for the Past Weeks

 TemperatureHumidityPressure
High64 °F (Jan 29, 3:53 PM)96% (Feb 2, 8:53 AM)30.46 "Hg (Feb 2, 8:53 AM)
Low19 °F (Feb 4, 5:53 AM)28% (Feb 4, 4:53 PM)29.36 "Hg (Feb 2, 1:53 PM)
Average38 °F67%29.99 "Hg
* Reported Jan 23 1:53 AM — Feb 7 1:53 AM, Independence, Weather by CustomWeather, © 2016

Note: Actual official high and low records may vary slightly from our data, if they occured in-between our weather recording intervals... More about our weather records

Advertising

Independence Weather History for the Previous 24 Hours

 ConditionsComfort  
Time TempWeatherWind HumidityBarometerVisibility
1:53 AM
Sun, Feb 7
39 °FClear.16 mph62%30.06 "Hg10 mi
12:53 AM39 °FClear.16 mph62%30.09 "Hg10 mi
11:53 PM
Sat, Feb 6
40 °FClear.14 mph60%30.11 "Hg10 mi
10:53 PM40 °FClear.14 mph60%30.11 "Hg10 mi
9:53 PM40 °FClear.15 mph63%30.13 "Hg10 mi
8:53 PM41 °FClear.12 mph60%30.15 "Hg10 mi
7:53 PM41 °FClear.12 mph62%30.16 "Hg10 mi
6:53 PM41 °FClear.8 mph62%30.20 "Hg10 mi
5:53 PM45 °FClear.12 mph53%30.20 "Hg10 mi
4:53 PM47 °FSunny.14 mph50%30.21 "Hg10 mi
3:53 PM48 °FSunny.15 mph48%30.22 "Hg10 mi
2:53 PM48 °FSunny.14 mph50%30.24 "Hg10 mi
1:53 PM48 °FSunny.9 mph50%30.24 "Hg10 mi
12:53 PM47 °FSunny.8 mph52%30.27 "Hg10 mi
11:53 AM44 °FSunny.6 mph58%30.31 "Hg10 mi
10:53 AM42 °FSunny.3 mph65%30.32 "Hg10 mi
9:53 AM37 °FSunny.No wind70%30.32 "Hg10 mi
8:53 AM33 °FSunny.No wind78%30.32 "Hg10 mi
7:53 AM28 °FSunny.6 mph81%30.33 "Hg10 mi
6:53 AM27 °FClear.3 mph81%30.29 "Hg10 mi
5:53 AM28 °FClear.No wind78%30.27 "Hg10 mi
4:53 AM30 °FClear.3 mph72%30.26 "Hg10 mi
3:53 AM31 °FClear.6 mph69%30.26 "Hg10 mi
Weather by CustomWeather, © 2016

See weather overviewHow to use our weather pages